Regional Weather Roundup
Issued by NWS Binghamton, NY

Home | Current Version | Previous Version | Text Only | Print | Product List | Glossary On
Versions: 1 2 3 4 5 6 7 8 9 10 11 12 13 14 15 16 17 18 19 20 21 22 23 24 25 26 27 28 29 30 31 32 33 34 35 36 37 38 39 40 41 42 43 44 45 46 47 48 49 50
000
ASUS41 KBGM 290510
RWRBGM
RWRBGM
BINGHAMTON REGIONAL WEATHER ROUNDUP
NATIONAL WEATHER SERVICE BINGHAMTON NY
100 AM EDT TUE JUL 29 2014

Note: "fair" indicates few or no clouds below 12,000 feet with no
significant weather and/or obstructions to visibility.

* = Station(s) that does not report precipitation, such as rain,
snow, etc, also no thunder or fog.

!NYZ009-015>018-022>025-036-037-044>046-055>057-062-290600
...CENTRAL NEW YORK...

CITY           SKY/WX    TMP DP  RH WIND       PRES   REMARKS
BINGHAMTON     MOCLDY    55  54  94 W3        29.82S
CORTLAND       CLOUDY    59  55  88 W3        29.83S
DANSVILLE      CLOUDY    58  55  90 CALM      29.87S
ELMIRA         CLOUDY    59  57  93 CALM      29.83S
ITHACA         LGT RAIN  59  57  92 NW8       29.84R
HAMILTON       CLOUDY    59  55  88 NW3       29.80R
MONTICELLO     CLOUDY    57  54  88 NW13G20   29.78S
NORWICH        CLOUDY    57  54  88 CALM      29.81R
PENN YAN       MOCLDY    59  55  87 VRB5      29.84S
ROME           CLOUDY    58  56  93 CALM      29.77F
SIDNEY         CLOUDY    61  57  88 W3        29.81R
SYRACUSE       MOCLDY    58  58 100 W8        29.79S
$$

!PAZ038>040-043-044-047-048-072-290600
...NORTHEAST PENNSYLVANIA...

CITY           SKY/WX    TMP DP  RH WIND       PRES   REMARKS
HAZLETON       MOCLDY    59  54  82 NW14G20   29.85S
SCRANTON       LGT RAIN  60  56  86 NW5       29.81F FOG
TOWANDA*       MOCLDY    59  55  88 W5        29.84S
$$
&&
KEY
WCI = WIND CHILL INDEX
VSB = VISIBILITY
HX  = HEAT INDEX
$$



USA.gov is the U.S. government's official web portal to all federal, state and local government web resources and services.